Printer-friendly version

IAU Minor Planet Center

Minor Planet Center

(31) Euphrosyne

Orbital Elements

The following orbital elements are taken from MPO 53552
   (31) Euphrosyne
Epoch 2007 Apr. 10.0 TT = JDT 2454200.5                 Goffin
M  32.14302              (2000.0)            P               Q
n   0.17635610     Peri.   61.99008     -0.00883339     -0.97317564
a   3.1492639      Node    31.23633     +0.68856102     -0.17263426
e   0.2257792      Incl.   26.31610     +0.72512461     +0.15207425
P   5.59           H    6.74          G   0.15           U   0
From 1277 observations at 68 oppositions, 1854-2002, mean residual 0".56.
An explanation of the orbital elements is available.

These orbital elements are also available in forms suitable for loading into a number of popular planetarium-type software programs.


Ephemeris

The following ephemeris is at intervals of five days. A daily ephemeris covering the same time interval is also available.

Personalized ephemerides for this object (and others) can be generated using the MPES.

Date    TT    R. A. (2000) Decl.     Delta      r     Elong.  Phase     V
2007 01 01    09 53.07   +55 52.6    1.705    2.476   132.4    17.1    10.8
2007 01 06    09 50.45   +56 43.2    1.690    2.481   134.6    16.4    10.7
2007 01 11    09 46.57   +57 28.9    1.679    2.486   136.4    15.8    10.7
2007 01 16    09 41.51   +58 07.9    1.674    2.491   137.7    15.4    10.7
2007 01 21    09 35.42   +58 38.6    1.673    2.496   138.5    15.2    10.7
2007 01 26    09 28.55   +58 59.6    1.677    2.502   138.6    15.1    10.7
2007 01 31    09 21.20   +59 10.0    1.687    2.508   138.1    15.2    10.7
2007 02 05    09 13.70   +59 09.1    1.701    2.514   137.0    15.5    10.7
2007 02 10    09 06.38   +58 56.9    1.721    2.520   135.4    16.0    10.8
2007 02 15    08 59.56   +58 33.9    1.745    2.527   133.3    16.5    10.8
2007 02 20    08 53.50   +58 00.8    1.774    2.533   130.8    17.2    10.9
2007 02 25    08 48.40   +57 18.6    1.807    2.540   128.1    17.9    11.0
2007 03 02    08 44.38   +56 28.7    1.844    2.547   125.2    18.5    11.1
2007 03 07    08 41.49   +55 32.3    1.885    2.555   122.1    19.2    11.1
2007 03 12    08 39.71   +54 30.7    1.930    2.562   118.9    19.8    11.2
2007 03 17    08 39.01   +53 24.9    1.977    2.570   115.6    20.4    11.3
2007 03 22    08 39.32   +52 15.9    2.028    2.578   112.4    20.9    11.4
2007 03 27    08 40.57   +51 04.5    2.082    2.586   109.1    21.4    11.4
2007 04 01    08 42.64   +49 51.4    2.138    2.594   105.8    21.8    11.5
2007 04 06    08 45.46   +48 37.1    2.195    2.602   102.5    22.0    11.6
2007 04 11    08 48.92   +47 22.0    2.255    2.611    99.2    22.3    11.7
2007 04 16    08 52.95   +46 06.5    2.316    2.619    96.0    22.4    11.7
2007 04 21    08 57.48   +44 50.7    2.379    2.628    92.9    22.4    11.8

Back to Bright Minor Planets

Astronomical Headlines Index

MPC


Valid HTML 4.01!